Alamosa, CO

11:19 PM MDT on August 21, 2019 (GMT -0600)
San Luis Valley Regional / Bergman Field

Weather History for KALS - June, 2019

Change the Weather History Date:

Saturday, June 8, 2019

  Actual Average Record
Temperature  
Mean Temperature 60 °F 58 °F  
Max Temperature 79 °F 77 °F 90 °F (2010)
Min Temperature 41 °F 39 °F 27 °F (1945)
Degree Days  
Heating Degree Days 5 7  
Month to date heating degree days 62 67  
Since 1 June heating degree days 62 67  
Since 1 July heating degree days 8487 8493  
Cooling Degree Days 0 0  
Month to date cooling degree days 0 0  
Year to date cooling degree days 0 0  
Since 1 June cooling degree days 0 0  
Growing Degree Days 14 (Base 50)    
Moisture  
Dew Point 26 °F    
Average Humidity 39    
Maximum Humidity 70    
Minimum Humidity 8    
Precipitation  
Precipitation 0.00 in 0.01 in 0.71 in (1979)
Month to date precipitation 0.15 0.12  
Year to date precipitation 4.84 2.34  
Snow  
Snow 0.00 in 0.00 in 0.00 in (2002)
Month to date snowfall 0.0 0.0  
Since 1 June snowfall 0.0 0.0  
Since 1 July snowfall 54.9 27.6  
Snow Depth 0.00 in    
Sea Level Pressure  
Sea Level Pressure 29.86 in    
Wind  
Wind Speed 12 mph (SW)    
Max Wind Speed 25 mph    
Max Gust Speed 35 mph    
Visibility 10 miles    
Events      
T = Trace of Precipitation, MM = Missing Value Source: NWS Daily Summary

Daily Weather History Graph

Daily Weather History Graph

Search for Another Location

Airport or City:

Astronomy

Jun. 08, 2019 Rise Set
Actual Time 5:42 AM MDT 8:22 PM MDT
Civil Twilight 5:11 AM MDT 8:53 PM MDT
Nautical Twilight 4:33 AM MDT 9:32 PM MDT
Astronomical Twilight 3:50 AM MDT 10:15 PM MDT
Moon 11:10 AM MDT (6/8) 12:28 AM MDT (6/8)
Length of Visible Light 15h 42m
Length of Day
14h 40m
Waxing Crescent, 33% of the Moon is Illuminated
Jun 8
Waxing Crescent
Jun 10
First Quarter
Jun 17
Full
Jun 25
Last Quarter
Jul 2
New

Hourly Weather History & Observations

Time (MDT) Temp. Windchill Dew Point Humidity Pressure Visibility Wind Dir Wind Speed Gust Speed Precip Events Conditions
12:52 AM 45.0 °F 43.5 °F 34.0 °F 65% 29.81 in 10.0 mi SW 3.5 mph - N/A   Clear
1:52 AM 43.0 °F - 33.1 °F 68% 29.83 in 10.0 mi Calm Calm - N/A   Clear
2:52 AM 46.0 °F 41.9 °F 33.1 °F 61% 29.81 in 10.0 mi SE 8.1 mph - N/A   Clear
3:52 AM 42.1 °F 39.2 °F 32.0 °F 67% 29.83 in 10.0 mi SSW 4.6 mph - N/A   Clear
4:52 AM 55.9 °F - 28.0 °F 34% 29.79 in 10.0 mi WSW 11.5 mph - N/A   Clear
5:52 AM 51.1 °F - 30.0 °F 44% 29.84 in 10.0 mi SW 10.4 mph - N/A   Clear
6:52 AM 55.9 °F - 34.0 °F 44% 29.83 in 10.0 mi SE 5.8 mph - N/A   Clear
7:52 AM 59.0 °F - 34.0 °F 39% 29.86 in 10.0 mi South 11.5 mph - N/A   Clear
8:52 AM 60.1 °F - 33.1 °F 36% 29.90 in 10.0 mi South 9.2 mph - N/A   Clear
9:52 AM 66.0 °F - 28.0 °F 24% 29.88 in 10.0 mi SSW 9.2 mph - N/A   Clear
10:52 AM 69.1 °F - 27.0 °F 21% 29.88 in 10.0 mi South 8.1 mph 18.4 mph N/A   Clear
11:52 AM 72.0 °F - 26.1 °F 18% 29.86 in 10.0 mi South 12.7 mph 19.6 mph N/A   Clear
12:52 PM 75.0 °F - 19.9 °F 13% 29.86 in 10.0 mi SSW 16.1 mph 31.1 mph N/A   Clear
1:52 PM 79.0 °F - 12.0 °F 8% 29.85 in 10.0 mi SW 19.6 mph 34.5 mph N/A   Clear
2:52 PM 79.0 °F - 12.0 °F 8% 29.83 in 10.0 mi West 17.3 mph 27.6 mph N/A   Clear
3:52 PM 78.1 °F - 16.0 °F 10% 29.85 in 10.0 mi WSW 17.3 mph 32.2 mph N/A   Clear
4:52 PM 78.1 °F - 18.0 °F 10% 29.80 in 10.0 mi WSW 19.6 mph 28.8 mph N/A   Clear
5:52 PM 75.9 °F - 19.9 °F 12% 29.82 in 10.0 mi SW 21.9 mph 27.6 mph N/A   Clear
6:52 PM 73.9 °F - 19.9 °F 13% 29.82 in 10.0 mi WSW 19.6 mph - N/A   Clear
7:52 PM 68.0 °F - 24.1 °F 19% 29.85 in 10.0 mi SW 16.1 mph - N/A   Clear
8:52 PM 63.0 °F - 24.1 °F 23% 29.89 in 10.0 mi SW 16.1 mph - N/A   Clear
9:52 PM 59.0 °F - 23.0 °F 25% 29.91 in 10.0 mi SW 13.8 mph - N/A   Clear
10:52 PM 54.0 °F - 26.1 °F 34% 29.95 in 10.0 mi West 6.9 mph - N/A   Clear
11:52 PM 48.0 °F - 28.0 °F 46% 29.99 in 10.0 mi NNE 6.9 mph - N/A   Clear